KTXEAGLE7 Weather Reports


Display with metric or nautical units.
time (UTC)temp
F
wind
direction
speed
MPH
gust
MPH
rain 1hr
in
rain 24hr
in
rain mn
in
humidity
%
barometer
mb
20260507180017 68 349 6.0 13.0 0.00 0.00 0.00 82 1016.6
20260507174511 67 55 8.0 14.0 0.00 0.00 0.00 82 1016.7
20260507173013 67 21 6.0 16.0 0.00 0.00 0.00 83 1017.0
20260507171503 66 328 4.0 13.0 0.00 0.00 0.00 83 1017.0
20260507170002 65 23 5.0 13.0 0.00 0.00 0.00 86 1017.1
20260507164501 64 28 4.0 13.0 0.00 0.00 0.00 87 1017.3
20260507163101 64 53 3.0 13.0 0.00 0.00 0.00 86 1017.2
20260507161604 63 325 4.0 11.0 0.00 0.00 0.00 86 1017.0
20260507160058 64 318 5.0 11.0 0.00 0.00 0.00 86 1017.0
20260507154600 64 49 6.0 16.0 0.00 0.00 0.00 86 1016.6
20260507153058 64 13 5.0 16.0 0.00 0.00 0.00 86 1016.5
20260507151557 63 30 6.0 16.0 0.00 0.00 0.00 88 1016.4
20260507150055 63 342 8.0 17.0 0.00 0.00 0.00 88 1016.1
20260507144555 62 346 5.0 16.0 0.00 0.00 0.00 89 1016.7
20260507143105 62 36 5.0 13.0 0.00 0.00 0.00 90 1016.8
20260507141554 62 51 5.0 13.0 0.00 0.00 0.00 91 1016.9
20260507140051 62 322 5.0 13.0 0.00 0.00 0.00 92 1016.8
20260507134550 63 71 8.0 18.0 0.00 0.00 0.00 92 1016.1
20260507133051 62 35 11.0 20.0 0.00 0.00 0.00 93 1015.4
20260507131545 63 16 7.0 15.0 0.00 0.00 0.00 93 1015.4
20260507130043 63 32 6.0 18.0 0.00 0.00 0.00 93 1015.6
20260507124546 63 273 5.0 13.0 0.00 0.00 0.00 92 1016.3
20260507123041 63 355 4.0 11.0 0.00 0.00 0.00 92 1016.1
20260507121536 63 17 4.0 15.0 0.00 0.00 0.00 91 1016.0
20260507120035 63 295 3.0 10.0 0.00 0.00 0.00 91 1015.6
20260507114554 63 28 4.0 8.0 0.00 0.00 0.00 91 1015.6
20260507113057 64 322 2.0 14.0 0.00 0.00 0.00 91 1015.0
20260507111537 64 304 5.0 15.0 0.00 0.00 0.00 90 1014.1
20260507110026 64 5 4.0 10.0 0.00 0.00 0.00 90 1014.9
20260507104537 64 27 2.0 10.0 0.00 0.00 0.00 90 1014.4
20260507103026 64 355 2.0 8.0 0.00 0.00 0.00 90 1014.6
20260507101525 64 350 2.0 10.0 0.00 0.00 0.00 90 1014.4
20260507100020 64 15 3.0 11.0 0.00 0.00 0.00 90 1014.1
20260507094519 64 13 3.0 10.0 0.00 0.00 0.00 89 1013.9
20260507093020 64 317 4.0 12.0 0.00 0.00 0.00 89 1013.8
20260507091519 64 40 2.0 10.0 0.00 0.00 0.00 89 1013.9
20260507090017 64 64 2.0 10.0 0.00 0.00 0.00 89 1013.8
20260507084517 64 29 2.0 11.0 0.00 0.00 0.00 88 1013.8
20260507083015 64 38 5.0 11.0 0.00 0.00 0.00 88 1013.7
20260507081520 64 78 5.0 14.0 0.00 0.00 0.00 88 1013.9
20260507080012 64 41 4.0 11.0 0.00 0.00 0.00 87 1014.0
20260507074512 64 19 4.0 12.0 0.00 0.00 0.00 87 1013.9
20260507073010 64 56 5.0 12.0 0.00 0.00 0.00 87 1013.9
20260507071508 64 60 2.0 13.0 0.00 0.00 0.00 86 1014.1
20260507070012 64 346 6.0 12.0 0.00 0.00 0.00 86 1014.2
20260507064506 65 22 5.0 17.0 0.00 0.00 0.00 86 1014.2
20260507063007 65 5 4.0 11.0 0.00 0.00 0.00 87 1014.3
20260507061503 65 331 5.0 14.0 0.00 0.00 0.00 87 1014.3
20260507060105 65 345 5.0 11.0 0.00 0.00 0.00 87 1014.3
20260507054559 65 337 4.0 11.0 0.00 0.00 0.00 86 1014.2
20260507053057 66 350 4.0 13.0 0.00 0.00 0.00 86 1014.1
20260507051555 66 56 5.0 15.0 0.00 0.00 0.00 86 1014.0
20260507050152 66 5 4.0 11.0 0.00 0.00 0.00 87 1013.5
20260507044605 66 36 4.0 11.0 0.00 0.00 0.00 86 1013.6
20260507043102 66 80 3.0 15.0 0.00 0.00 0.00 86 1013.7
20260507041554 66 24 5.0 15.0 0.00 0.00 0.00 86 1013.7
20260507040046 66 317 4.0 11.0 0.00 0.00 0.00 85 1013.8
20260507034544 67 21 5.0 12.0 0.00 0.00 0.00 85 1013.4
20260507033043 67 13 7.0 15.0 0.00 0.00 0.00 84 1013.5
20260507031545 67 343 5.0 12.0 0.00 0.00 0.00 84 1013.5
20260507030038 67 326 7.0 14.0 0.00 0.00 0.00 83 1013.4
20260507024534 68 296 4.0 14.0 0.00 0.00 0.00 83 1012.9
20260507023033 68 11 4.0 12.0 0.00 0.00 0.00 82 1012.6
20260507021528 69 339 5.0 11.0 0.00 0.00 0.00 82 1012.3
20260507020042 69 319 5.0 13.0 0.00 0.00 0.00 82 1012.0
20260507014521 69 41 5.0 12.0 0.00 0.00 0.00 82 1011.4
20260507013022 70 5 5.0 13.0 0.00 0.00 0.00 82 1011.4
20260507011523 71 329 3.0 12.0 0.00 0.00 0.00 82 1011.2
20260507010014 71 20 2.0 8.0 0.00 0.00 0.00 84 1011.1
20260507004512 72 308 5.0 10.0 0.00 0.00 0.00 83 1010.7
20260507003010 72 314 5.0 14.0 0.00 0.00 0.00 83 1010.4
20260507001525 73 17 6.0 15.0 0.00 0.00 0.00 83 1010.1
20260507000003 74 72 5.0 13.0 0.00 0.00 0.00 82 1009.8
20260506234503 77 348 6.0 17.0 0.00 0.00 0.00 79 1009.7
20260506233102 85 338 0.0 0.0 0.00 0.00 0.00 79 1009.1
20260506231607 85 292 0.0 0.0 0.00 0.00 0.00 79 1008.8
20260506230113 85 248 0.0 0.0 0.00 0.00 0.00 80 1008.6
20260506224557 85 248 0.0 0.0 0.00 0.00 0.00 81 1008.6
20260506223103 84 248 0.0 3.0 0.00 0.00 0.00 83 1008.5
20260506221610 84 219 2.0 4.0 0.00 0.00 0.00 81 1008.6
20260506220056 85 246 3.0 6.0 0.00 0.00 0.00 80 1008.5
20260506214556 84 238 4.0 9.0 0.00 0.00 0.00 81 1008.4
20260506213055 84 161 3.0 8.0 0.00 0.00 0.00 82 1008.6
20260506211554 85 179 4.0 7.0 0.00 0.00 0.00 82 1008.7
20260506210056 84 185 2.0 7.0 0.00 0.00 0.00 85 1008.8
20260506204550 83 225 3.0 10.0 0.00 0.00 0.00 84 1008.8
20260506203045 82 182 4.0 11.0 0.00 0.00 0.00 86 1009.0
20260506201544 82 208 5.0 8.0 0.00 0.00 0.00 87 1009.3
20260506200042 82 194 7.0 11.0 0.00 0.00 0.00 85 1009.4
20260506194541 82 180 7.0 11.0 0.00 0.00 0.00 86 1009.4
20260506193043 81 180 4.0 8.0 0.00 0.00 0.00 88 1009.6
20260506191537 81 140 5.0 9.0 0.00 0.00 0.00 88 1009.6
20260506190035 81 131 6.0 8.0 0.00 0.00 0.00 89 1010.0
20260506184537 81 169 3.0 4.0 0.00 0.00 0.00 88 1010.0
20260506183030 80 150 1.0 8.0 0.00 0.00 0.00 90 1010.2
20260506181536 79 80 3.0 7.0 0.00 0.00 0.00 93 1010.5